Wind_Speed
14 14 13 13 13 13 13 13 14 14 14 15 15 16 16 17 18 18 18 18 19 19 19 19 19 19 19 19 18 18 17 18 19 20 21 21 21 21 23 25 27 29 32 36 39 40 41 43 43 42 41 40 40 40 38 38 37 38 44 48 52 54 52 50 46 43 41 38 35 33 31 27 22 19 20 20 18 17 17 18 17 19 18 15 15 13 11 10
16 15 15 15 14 14 14 14 15 15 15 16 16 17 18 18 19 19 19 19 19 19 19 20 20 21 21 20 19 19 18 19 20 20 20 21 21 21 21 22 24 25 27 30 33 36 38 40 42 42 41 41 41 41 40 40 39 40 42 47 55 59 59 55 50 46 43 38 35 34 32 30 27 22 19 20 20 19 19 20 19 19 21 20 18 16 14 12
16 16 16 16 16 15 15 15 16 16 16 16 16 17 17 18 19 19 19 19 19 19 19 19 19 21 22 22 21 21 19 20 22 22 21 21 21 21 21 22 22 23 24 25 28 31 34 36 39 40 41 42 42 41 42 42 42 43 43 47 54 58 58 58 55 52 48 43 38 35 34 32 32 27 23 22 21 22 21 22 23 20 20 21 21 20 19 17
15 15 15 16 16 16 17 17 17 17 17 17 17 17 17 18 18 19 19 18 18 18 18 18 18 20 21 21 21 21 21 21 22 22 22 22 22 22 22 22 22 23 22 23 24 25 28 31 34 37 38 40 42 41 43 44 44 45 46 50 53 52 51 54 55 55 53 50 46 42 38 36 35 32 31 28 24 24 22 21 21 19 19 21 21 21 22 19
14 14 14 15 15 16 17 17 17 17 17 17 17 18 19 20 20 21 20 19 18 17 17 17 17 18 19 19 19 19 19 19 20 20 20 20 21 21 21 21 21 22 22 22 22 22 24 26 28 32 35 38 40 41 43 44 45 47 49 51 51 49 47 48 49 51 51 51 50 49 47 44 38 34 34 33 31 29 24 22 20 17 18 19 20 23 26 22
14 14 14 14 14 15 15 15 15 16 16 17 18 19 20 20 20 21 22 21 20 19 17 17 17 18 18 18 17 18 17 17 18 18 19 19 19 19 19 18 18 19 20 21 21 21 21 22 24 27 31 34 37 40 43 43 44 48 50 50 50 49 47 45 45 45 46 47 48 48 48 48 43 39 39 38 37 33 28 29 30 25 21 21 20 24 28 24
16 15 15 14 14 14 14 14 14 15 16 17 18 18 18 17 17 19 19 20 20 20 19 19 19 19 19 19 18 17 16 17 19 19 19 20 20 20 20 20 20 19 18 19 20 21 21 20 21 23 27 31 34 37 40 41 43 47 50 50 50 50 48 47 45 44 44 44 45 44 43 44 45 44 43 42 41 35 31 34 36 31 28 28 25 26 27 24
17 16 15 14 13 13 13 13 14 15 16 16 17 16 16 16 16 17 17 17 18 19 19 20 20 20 20 20 19 18 17 17 18 18 18 20 20 20 21 22 22 22 21 20 20 20 20 20 19 20 22 26 31 34 37 39 41 45 49 49 49 48 48 47 46 44 44 44 42 41 41 43 44 44 43 44 44 40 37 36 35 34 34 34 31 30 29 25
18 17 15 13 12 12 12 13 15 16 16 17 16 16 16 16 16 16 16 17 16 16 17 17 18 18 20 21 21 20 17 16 17 17 18 19 20 20 20 21 21 22 23 23 22 22 21 21 20 20 20 22 26 30 33 36 38 43 47 48 48 47 46 46 46 45 42 42 40 39 41 42 39 38 41 43 40 37 37 36 35 35 35 34 32 33 35 30
19 18 16 14 12 12 13 14 16 16 17 17 16 16 16 16 16 16 16 15 14 14 15 15 16 17 19 20 22 22 19 18 18 18 18 18 19 20 21 21 20 21 23 24 24 25 25 25 24 23 22 21 23 25 29 33 37 40 43 46 48 48 45 43 43 43 41 40 40 40 41 41 36 34 40 42 36 33 33 34 34 34 33 33 31 32 38 39
21 19 17 15 13 13 14 16 17 17 17 17 17 17 16 16 16 16 15 14 14 13 13 14 15 15 16 17 20 21 19 20 21 20 17 15 17 19 20 21 21 20 21 22 23 25 26 27 26 25 23 22 23 23 25 31 34 37 39 42 45 47 47 44 40 39 40 41 40 41 41 39 36 40 46 43 36 33 31 32 33 32 33 34 32 31 35 41
22 21 18 16 14 14 15 17 17 18 17 17 18 17 17 17 16 16 15 14 13 13 12 12 11 11 13 14 16 17 17 19 21 20 18 14 13 15 17 19 20 20 20 20 21 23 24 25 26 26 24 23 23 21 21 26 31 35 37 39 40 42 45 46 42 36 36 40 41 38 37 40 44 50 52 44 38 35 33 33 34 33 34 33 31 30 31 36
23 22 19 17 15 15 16 18 18 18 17 17 18 18 18 17 16 16 15 14 13 12 11 10 10 10 10 10 11 12 13 15 17 18 19 17 14 12 14 16 17 18 19 18 19 21 22 23 24 25 25 25 23 19 18 21 26 30 33 36 37 37 41 46 44 39 36 37 37 36 35 43 53 56 51 44 40 38 35 35 34 33 34 33 31 30 31 34
24 23 20 18 16 16 17 18 19 18 18 18 18 18 18 17 16 16 14 13 13 11 11 11 12 10 6 7 9 9 10 11 13 15 17 17 16 13 11 13 14 14 16 17 19 20 21 22 24 24 24 25 23 22 21 21 21 23 26 29 34 33 34 40 41 40 40 37 34 36 38 45 54 55 50 45 43 40 37 35 33 33 34 34 32 32 34 36
25 24 22 19 17 16 17 18 19 19 18 18 19 18 18 16 16 16 14 14 12 11 12 13 15 9 5 9 10 8 9 9 10 11 12 14 15 14 11 9 11 11 12 14 18 21 21 22 23 23 23 24 23 23 24 23 21 20 18 18 24 25 25 32 36 36 39 38 35 35 39 46 48 48 47 45 44 42 39 35 34 35 35 35 34 34 35 38
25 24 23 20 18 17 17 18 19 19 18 19 19 19 17 15 16 16 14 14 12 13 13 15 17 7 5 12 11 9 9 9 9 9 11 12 13 14 13 10 8 10 10 10 14 20 23 23 23 22 22 23 23 23 22 23 23 22 19 14 15 14 13 21 28 29 31 34 37 38 41 47 44 43 45 43 44 45 43 38 36 36 36 35 34 34 33 36
26 25 24 21 19 18 18 18 19 19 19 19 19 19 16 15 17 15 15 14 12 14 14 17 19 8 5 14 12 10 11 9 10 11 11 13 13 14 14 12 10 9 10 10 11 16 20 22 23 22 21 21 20 20 18 18 19 20 21 19 16 13 10 10 13 19 24 28 37 43 47 49 44 41 43 43 43 44 45 43 39 38 37 35 34 34 34 33
26 25 24 22 20 19 18 19 19 19 19 20 20 17 15 15 16 15 14 13 12 14 14 18 20 11 8 15 14 12 12 11 11 11 11 13 14 14 14 14 12 9 9 11 11 12 15 18 21 21 21 20 18 17 15 14 14 14 16 17 17 17 15 11 7 10 19 26 32 41 50 53 47 40 38 41 44 44 46 45 42 40 39 38 37 36 36 34
26 26 24 23 22 20 19 19 19 19 19 20 20 17 14 16 17 16 15 14 14 16 16 19 21 15 13 16 16 15 14 12 11 11 11 12 13 14 14 14 12 10 9 9 10 11 12 14 18 19 21 20 17 15 15 16 16 14 13 12 12 12 15 17 15 12 17 25 31 37 46 49 46 44 39 37 41 44 46 45 44 43 41 40 39 38 38 35
26 26 25 24 22 21 20 20 19 20 20 19 18 15 14 15 16 15 16 15 14 17 19 21 22 19 17 17 17 16 14 12 12 12 11 11 12 12 13 12 11 10 8 8 10 11 12 14 17 20 21 19 17 16 14 15 17 16 15 14 13 12 12 15 18 18 18 22 29 37 42 43 44 48 46 40 38 42 46 47 46 45 44 42 40 39 40 37
26 26 25 24 23 21 21 20 20 21 21 20 17 14 12 14 14 13 14 12 12 17 20 21 23 21 18 19 20 17 13 12 12 12 11 10 11 11 11 11 10 8 8 7 9 10 13 16 18 18 18 18 17 17 15 15 15 15 16 16 16 17 18 16 16 19 19 19 26 33 37 40 42 46 48 46 43 43 45 47 48 47 45 44 42 39 38 38
26 26 25 25 23 22 21 20 21 22 22 22 18 15 14 15 15 14 14 10 11 17 19 21 23 21 19 20 21 20 16 13 12 13 13 11 11 11 11 12 11 9 9 9 10 11 13 16 18 16 16 17 16 16 16 16 15 14 14 15 16 18 22 20 18 19 18 19 25 30 32 35 37 43 46 47 48 48 46 46 47 46 46 46 45 41 37 36
26 26 25 25 23 22 21 20 21 22 23 22 19 17 15 16 16 15 15 9 9 17 18 19 23 20 19 21 22 21 17 14 13 13 14 12 11 12 12 13 13 12 12 11 11 12 12 13 13 11 11 13 13 14 16 17 18 17 15 14 15 18 19 17 18 20 20 22 25 27 31 34 35 39 44 46 49 50 48 48 48 46 45 46 46 45 40 37
26 26 25 25 24 23 22 20 21 21 22 21 20 18 16 16 16 15 16 8 6 17 18 19 23 19 20 23 21 20 16 14 13 11 13 14 13 14 13 13 14 15 14 12 12 13 13 13 14 12 11 11 11 13 16 18 18 19 19 18 18 19 17 14 15 18 20 25 27 25 26 31 35 38 41 44 47 50 49 49 52 50 46 44 46 47 44 40
25 25 25 25 24 23 22 20 21 21 21 21 20 19 17 17 15 15 16 5 3 17 19 20 23 18 21 25 21 19 16 12 11 10 11 13 14 14 14 14 15 15 14 12 13 15 15 13 14 15 14 14 14 15 16 16 16 18 21 21 21 19 16 14 14 12 14 20 27 25 18 17 24 36 42 43 43 46 50 50 52 54 51 46 45 48 47 44
25 25 25 24 24 25 23 21 21 21 21 21 20 20 18 17 15 16 15 1 1 16 19 20 22 19 25 26 22 19 13 10 12 13 11 11 12 13 15 15 16 17 16 15 16 18 17 14 14 15 14 14 16 17 16 14 12 14 17 17 14 12 11 11 10 8 9 15 19 20 16 9 11 23 34 40 44 44 47 51 52 54 55 51 48 48 49 47
24 24 24 24 24 25 23 22 22 21 21 20 20 20 17 17 15 16 12 2 3 16 18 20 22 21 26 27 22 18 12 11 13 11 9 10 11 13 16 17 18 18 17 16 16 18 17 12 10 11 11 13 14 14 14 13 12 14 16 14 9 7 8 8 8 10 13 16 15 14 16 12 14 23 25 28 40 45 46 50 54 55 56 56 53 50 50 49
24 24 24 24 25 24 23 23 22 22 21 20 21 19 17 16 13 14 8 2 5 15 16 19 21 20 23 22 18 14 13 14 13 10 11 12 12 14 18 18 19 19 16 16 18 20 19 15 11 11 11 12 13 11 9 12 14 15 14 12 11 10 10 9 8 11 12 13 14 15 18 12 15 30 29 22 30 43 48 50 54 56 56 57 57 53 50 49
24 24 24 24 25 25 24 23 22 22 21 20 20 18 18 15 11 11 4 1 8 14 15 18 19 19 19 16 12 11 14 16 13 12 12 12 13 15 19 19 20 21 19 20 23 24 23 20 19 18 19 19 17 14 12 13 14 13 10 10 11 10 10 10 9 11 10 10 13 17 19 13 12 23 30 27 29 39 48 52 52 54 56 56 56 56 52 50
24 24 23 24 25 25 25 24 23 22 21 21 19 19 18 13 10 8 1 3 12 13 15 18 16 18 19 15 13 14 16 15 14 14 13 12 14 15 18 20 21 21 22 23 25 26 25 25 25 25 25 24 22 20 19 17 15 13 11 9 10 11 11 9 8 10 8 9 18 22 18 14 11 13 25 35 35 36 42 48 50 50 53 56 56 56 54 52
24 23 23 24 25 25 25 24 24 23 22 21 19 18 16 11 8 5 1 8 13 12 16 17 15 17 18 18 20 18 17 16 15 16 15 15 15 16 17 19 18 18 20 22 23 24 23 24 27 28 27 24 24 24 23 22 19 17 15 11 9 9 10 10 9 10 6 8 19 24 18 16 13 10 21 36 38 36 35 39 46 48 48 52 55 56 55 53
24 23 22 23 25 25 24 24 25 23 22 21 19 18 13 8 5 4 5 11 12 13 19 19 17 18 17 18 21 22 21 19 18 19 19 19 19 19 17 16 15 15 15 16 17 19 22 24 24 25 25 24 24 25 24 25 24 22 18 12 8 5 6 6 7 8 8 12 17 15 10 14 19 20 26 36 38 37 36 35 40 44 45 47 52 55 56 54
24 23 22 23 24 24 23 24 25 23 22 21 19 17 12 5 2 6 10 11 11 16 20 19 17 17 17 17 20 22 23 22 22 22 22 22 22 20 17 14 13 14 16 16 15 15 19 20 14 14 17 18 22 24 22 20 21 22 19 15 11 5 3 4 6 6 8 15 19 17 10 9 16 22 29 39 40 37 39 39 38 40 42 43 47 52 55 56
24 24 23 23 24 23 22 23 24 23 21 20 19 16 10 3 3 8 11 11 14 17 19 19 17 15 17 18 20 24 26 25 25 25 25 24 23 21 17 13 11 13 17 17 14 10 11 11 6 6 9 10 15 20 19 19 19 19 19 18 16 11 6 4 6 6 6 11 14 14 10 6 9 11 20 34 40 37 37 40 39 39 39 39 43 47 51 55
24 25 24 24 24 22 21 22 23 22 20 19 17 14 8 4 5 10 11 13 17 19 19 19 17 17 18 18 19 23 26 26 26 29 30 27 25 22 15 10 10 12 13 11 9 7 9 10 7 6 8 9 10 12 14 17 19 17 16 16 18 21 16 8 7 8 6 7 7 7 8 11 14 14 16 24 30 32 35 38 40 41 39 37 40 44 47 49
24 25 24 24 24 20 21 22 21 20 20 18 15 12 9 6 7 11 13 15 18 21 22 20 17 18 20 21 23 24 27 28 28 30 31 30 24 15 11 11 13 15 13 10 10 8 8 10 10 9 11 11 8 7 9 13 14 13 16 20 23 25 20 12 9 9 8 6 6 8 11 16 19 21 22 23 24 27 31 32 36 41 42 40 39 42 44 45
25 25 24 25 23 19 21 22 20 20 19 16 14 11 9 8 9 12 13 15 18 21 23 20 18 17 19 23 25 26 27 27 27 27 28 29 22 11 12 16 15 14 11 9 11 11 11 15 17 14 12 10 8 7 9 12 13 11 13 19 22 19 14 12 8 6 7 6 6 10 14 15 14 14 16 19 22 26 30 30 31 35 41 44 42 41 42 42
24 24 24 25 22 19 22 22 19 19 18 16 14 11 10 9 10 12 14 15 17 20 20 18 17 17 19 22 25 28 27 25 28 28 26 25 19 14 17 18 14 12 9 8 10 11 11 15 15 10 8 8 9 10 9 11 15 15 11 10 12 11 11 14 10 4 6 6 6 11 16 17 17 15 13 15 19 25 29 28 27 30 36 42 44 41 41 41
24 23 23 24 21 19 23 22 19 19 17 16 14 12 11 10 9 12 14 15 18 19 19 16 15 17 20 22 24 27 27 26 31 31 23 20 19 17 17 13 10 11 11 11 13 14 11 10 10 9 7 6 6 10 11 12 13 15 14 11 11 10 9 14 14 9 6 5 6 9 12 13 17 19 19 18 18 21 25 26 25 26 28 34 41 45 44 43
24 22 22 25 21 19 23 22 19 18 16 16 15 13 13 11 9 11 14 16 18 18 17 16 15 17 20 22 23 25 27 28 31 28 21 22 23 18 10 9 12 15 17 15 15 15 13 11 12 14 12 9 8 8 8 11 12 13 15 16 15 12 9 11 13 14 10 6 5 6 8 10 14 17 18 17 16 17 21 25 25 25 25 27 34 42 46 46
23 22 23 24 20 19 24 22 19 18 16 18 17 14 14 14 11 11 13 15 16 16 16 14 15 18 19 22 25 24 26 30 30 25 23 25 24 18 13 14 16 18 21 20 17 15 13 14 16 18 19 18 15 11 8 9 11 12 15 19 19 15 11 8 9 15 16 10 8 6 6 10 13 14 15 14 13 14 18 22 24 25 26 28 30 36 42 46
23 22 23 23 19 20 24 22 20 20 18 19 19 17 17 17 15 14 12 13 14 14 13 12 15 17 17 22 25 23 26 31 28 22 25 28 25 20 18 18 17 17 21 22 19 17 16 17 18 20 23 22 18 14 14 13 11 11 14 19 21 19 18 14 9 10 13 13 14 11 9 13 16 16 15 14 12 13 16 20 22 20 21 25 27 30 35 40
23 22 23 23 20 22 25 22 20 21 20 20 19 20 20 20 20 18 13 11 11 10 10 12 14 15 17 21 24 25 27 29 26 25 28 30 28 23 19 18 17 18 20 20 18 15 14 16 16 18 22 19 12 11 15 17 15 15 17 20 22 23 23 20 13 10 10 11 13 9 8 16 21 19 17 16 15 14 13 15 16 16 15 17 21 23 26 32
22 21 24 23 20 23 26 23 22 22 20 18 17 18 20 21 21 20 15 13 10 8 11 13 13 15 19 21 24 27 26 23 26 31 31 31 32 27 20 17 16 16 18 19 16 12 11 12 11 10 11 9 4 5 10 16 19 20 21 21 22 23 22 22 20 15 12 13 14 10 10 18 19 13 12 12 14 16 14 12 13 14 14 16 20 23 25 29
23 22 25 24 21 24 27 25 24 24 22 20 18 18 19 20 20 21 18 14 10 11 13 13 13 16 20 22 25 25 23 23 28 32 32 32 35 30 19 11 12 15 18 18 16 13 12 14 12 7 5 3 3 2 3 10 18 22 24 23 23 22 21 22 20 14 12 14 17 15 17 22 20 13 14 13 12 15 15 14 14 14 13 14 20 26 30 31
23 23 25 25 21 24 28 27 26 26 25 24 22 21 21 20 20 21 18 13 11 13 13 12 14 17 19 22 25 24 24 27 30 31 32 34 35 29 16 8 9 13 16 14 12 10 11 15 15 13 11 9 9 7 4 5 11 17 22 24 24 23 23 23 20 17 16 14 16 20 23 27 28 23 19 14 11 13 15 14 14 14 12 11 13 20 28 32
23 23 26 26 22 24 29 27 26 26 26 26 24 23 22 22 21 20 17 13 13 13 13 13 16 18 20 23 25 25 27 31 31 31 32 33 33 25 12 7 10 11 10 10 10 8 11 15 16 17 16 14 13 10 7 8 10 14 19 23 26 26 25 26 24 24 22 14 16 23 25 28 29 23 19 15 12 11 14 15 15 14 12 11 10 14 24 31
22 23 26 26 24 25 28 27 25 26 26 25 25 24 22 22 22 21 19 14 11 13 15 16 17 20 22 22 25 27 31 33 33 32 32 29 26 20 11 8 12 12 10 10 12 10 12 16 16 16 17 15 11 8 8 11 14 16 20 23 26 26 27 29 28 28 26 21 23 26 25 28 29 23 20 19 16 13 14 17 18 15 13 13 11 11 20 28
21 23 25 27 26 26 28 28 26 26 26 26 26 24 23 22 22 22 20 13 10 15 18 17 18 20 20 21 24 27 31 33 34 35 32 25 20 19 16 11 11 14 13 11 14 15 12 15 16 17 19 19 14 9 9 12 14 17 22 25 26 26 27 30 31 30 27 28 32 30 28 31 29 23 22 21 18 15 14 17 19 15 14 13 9 8 14 21
21 22 24 25 26 26 28 29 28 27 26 25 25 23 21 22 22 22 19 14 13 16 17 18 19 19 19 20 23 26 30 30 32 34 29 21 19 20 16 11 9 11 11 11 16 16 13 17 20 19 22 24 17 9 11 13 14 17 21 25 26 27 27 30 32 31 30 32 34 33 35 35 25 19 22 22 19 16 15 16 18 15 15 16 9 5 8 15
22 22 22 24 26 27 29 30 29 28 27 26 25 23 19 20 23 22 18 16 16 16 16 19 21 20 20 21 22 26 28 27 30 29 22 18 19 16 12 11 8 9 12 13 16 17 16 21 24 21 21 23 22 14 9 9 12 16 19 22 25 26 27 29 30 29 30 32 34 34 38 36 25 22 24 23 20 17 15 15 16 16 18 16 8 4 5 12
23 22 21 22 25 27 29 31 30 30 29 27 27 25 20 19 23 24 21 18 16 17 18 21 22 22 23 23 23 26 27 26 27 22 16 15 15 13 13 13 8 7 11 13 15 17 18 20 23 21 16 19 22 16 5 2 5 9 15 19 22 24 25 26 27 27 27 29 32 33 35 34 29 28 27 22 19 17 15 17 17 16 18 14 8 6 7 9
Wind_Direction
352 350 348 345 342 338 334 328 324 321 320 319 319 318 317 314 311 307 305 303 302 300 298 297 295 291 288 284 282 279 276 274 273 273 273 270 268 266 263 261 258 254 251 248 244 243 243 242 240 239 237 234 232 231 229 228 228 227 226 227 229 233 236 237 238 237 237 239 238 238 242 243 233 229 238 240 238 237 239 244 240 236 238 229 213 203 196 204
350 347 344 341 339 335 330 325 323 323 323 322 321 319 316 312 308 305 303 302 301 299 298 297 295 293 289 287 284 280 277 274 271 270 271 273 273 271 269 266 263 260 256 253 249 245 243 242 240 238 236 234 233 231 228 228 227 226 226 228 229 230 233 235 238 241 240 238 238 240 242 244 244 238 234 236 235 236 236 238 236 229 232 233 225 216 200 198
350 345 341 339 337 334 330 329 329 328 328 325 322 318 314 310 307 305 304 303 302 300 298 296 294 292 290 289 288 284 279 275 272 271 270 269 269 268 267 265 263 261 259 256 254 250 246 243 241 239 236 234 232 230 228 227 227 227 227 230 232 232 233 235 236 240 242 241 239 240 242 242 244 244 240 238 237 237 236 236 237 231 230 230 230 227 213 202
350 344 340 338 336 333 333 333 332 332 330 326 323 319 316 313 311 309 307 307 306 305 304 302 300 296 294 294 293 290 287 282 277 273 270 267 265 265 264 263 262 261 260 259 257 254 250 247 243 239 236 234 232 230 227 226 227 227 228 231 235 236 235 236 235 237 241 243 243 242 242 241 241 245 248 244 233 229 230 231 234 235 234 228 226 225 215 209
351 345 342 340 337 334 334 332 331 331 329 326 324 323 322 321 321 318 316 317 315 314 313 312 310 306 305 304 300 297 295 290 284 278 273 269 265 264 263 261 260 260 259 259 258 256 252 249 246 241 237 234 231 230 228 226 226 228 230 234 237 238 238 237 236 237 239 241 243 242 242 241 241 244 248 245 234 231 229 224 224 231 236 230 228 226 215 212
355 350 348 344 339 336 334 332 332 333 331 328 325 325 324 324 324 322 321 322 321 321 322 319 317 315 314 312 309 305 300 291 287 284 279 274 268 265 264 262 260 259 258 257 256 254 253 251 248 243 238 235 231 229 229 226 225 228 232 234 236 236 237 238 237 236 237 238 240 241 242 242 242 243 244 245 242 239 234 234 242 244 237 231 229 223 213 212
359 356 354 349 344 341 338 336 337 335 330 326 324 323 322 322 322 322 321 321 321 323 324 322 321 319 317 314 312 307 302 294 291 287 281 277 272 267 264 263 263 260 258 256 254 251 250 249 247 245 240 236 233 230 229 226 225 228 231 232 233 234 234 236 237 235 235 236 238 240 243 243 241 240 240 242 245 244 238 243 252 247 237 235 230 220 214 219
2 360 358 354 350 346 341 339 338 334 330 326 325 326 325 325 323 323 322 321 321 321 321 321 320 319 317 315 312 309 305 299 294 289 283 277 273 271 266 263 262 260 258 255 252 248 245 244 244 246 243 238 235 232 229 227 226 228 230 230 231 232 233 233 234 235 234 234 236 238 241 242 241 240 240 242 245 246 243 245 247 242 240 242 239 227 219 220
3 2 1 358 353 349 345 341 338 336 333 330 330 332 331 329 326 324 322 321 321 320 320 319 319 318 315 314 312 312 311 301 294 289 286 280 273 270 267 263 259 258 258 255 251 247 245 244 244 245 248 244 238 235 232 229 227 228 230 230 230 230 231 232 232 232 233 233 233 234 237 239 240 240 241 242 242 241 241 242 243 243 242 243 245 238 228 220
4 3 3 359 355 353 347 343 342 340 337 333 334 336 334 331 328 325 324 324 324 323 323 321 320 315 311 308 307 310 310 303 299 296 293 289 282 274 267 263 257 252 253 254 253 250 249 249 248 247 248 249 243 238 234 232 230 229 230 231 231 230 229 229 230 229 228 229 230 231 234 236 237 238 240 240 237 234 235 238 241 243 242 241 247 248 237 227
4 4 3 360 357 353 348 346 345 343 339 336 337 338 336 333 330 330 331 330 330 328 327 325 321 315 310 305 302 307 307 304 305 306 306 299 290 285 277 269 261 252 247 249 250 250 251 250 250 248 247 246 244 240 236 234 233 232 233 234 233 233 231 228 226 225 225 226 227 230 233 234 234 235 238 238 233 229 229 232 235 238 240 243 248 250 240 229
4 4 3 359 357 353 349 347 347 345 342 339 339 340 337 335 335 337 337 334 333 333 333 334 332 326 317 309 306 310 308 306 308 311 315 312 298 289 284 278 269 259 250 246 247 248 249 249 248 247 245 243 241 240 239 238 236 235 236 237 237 236 235 230 225 222 221 224 224 225 230 232 231 233 235 235 234 230 226 229 233 235 239 242 244 246 238 226
3 3 1 358 356 352 349 348 347 346 343 340 340 340 337 337 340 341 338 337 339 341 345 353 353 342 329 322 321 318 310 307 308 311 315 318 316 302 288 285 280 270 259 249 245 246 247 247 247 245 244 243 240 237 238 239 238 237 238 241 241 240 240 235 229 223 218 220 220 218 225 230 232 234 234 233 234 233 228 228 232 234 236 236 237 241 237 227
2 1 359 358 355 352 349 348 347 346 344 342 340 340 339 339 343 343 342 344 347 352 360 5 2 358 355 351 340 326 314 306 305 306 307 313 321 324 306 292 290 286 273 257 247 244 244 245 246 246 245 244 242 237 236 237 238 239 240 242 244 243 244 241 234 228 222 218 212 211 223 232 234 236 234 232 233 234 232 229 229 230 232 233 232 236 237 230
1 360 358 357 355 351 350 348 348 347 345 342 339 340 340 342 345 344 347 351 354 1 8 8 6 13 24 4 354 340 325 314 313 310 312 316 321 329 327 307 295 294 287 266 252 246 243 244 246 246 246 246 245 242 239 238 237 237 239 244 243 241 248 247 240 234 228 220 209 208 224 232 235 236 234 232 233 234 233 229 227 228 230 232 230 231 236 233
1 359 357 356 354 351 349 348 348 348 346 343 340 340 342 345 346 348 352 355 358 7 11 10 8 17 23 6 4 356 341 331 336 335 333 333 330 330 330 328 313 305 304 281 259 251 246 247 249 248 247 247 248 247 247 247 243 239 238 243 245 240 249 251 244 239 233 225 214 211 223 230 232 234 233 233 233 233 234 229 225 228 229 229 228 228 232 233
0 360 358 356 354 351 348 349 349 349 347 344 340 340 343 346 349 352 353 354 359 8 11 9 9 17 9 5 7 358 350 346 348 348 343 337 333 330 326 330 326 313 308 293 268 254 249 249 251 252 250 247 248 249 250 252 247 244 243 245 247 243 242 244 240 236 230 227 220 216 223 228 229 231 231 230 232 233 234 231 224 225 228 227 225 226 226 227
0 0 358 356 353 350 348 348 349 350 348 344 342 342 343 347 352 354 352 354 1 8 10 8 12 22 5 2 4 358 355 351 344 343 340 332 328 325 323 324 323 316 306 296 281 261 253 251 251 253 252 249 249 247 244 247 250 251 250 249 248 245 241 230 202 208 214 219 222 221 225 229 228 227 227 228 230 231 233 234 228 224 227 228 224 222 222 223
360 0 359 356 353 350 348 348 349 351 351 347 343 342 343 349 354 353 350 354 3 9 11 9 11 16 6 1 0 355 352 347 338 333 332 327 321 320 319 319 318 316 306 293 284 269 258 252 249 249 248 247 250 250 248 253 257 258 253 249 245 240 240 233 217 201 200 208 217 222 227 231 231 227 224 225 227 229 231 234 232 226 225 229 227 222 221 221
359 0 360 357 353 350 348 348 349 349 352 350 346 344 344 350 352 350 350 353 1 7 11 11 9 7 3 359 355 351 346 339 330 325 327 322 314 313 312 312 315 318 306 283 274 269 263 254 249 248 248 248 250 253 255 257 257 255 252 251 248 241 239 232 224 217 211 215 217 219 227 232 232 229 225 224 224 227 229 231 233 230 225 228 228 224 222 222
358 359 360 357 353 351 348 348 348 349 351 350 350 350 347 349 352 353 353 352 359 7 10 10 7 3 359 356 350 346 340 331 320 316 319 312 305 305 303 302 308 310 298 282 272 268 264 258 254 252 252 253 251 251 253 255 255 254 253 256 255 252 247 235 226 218 218 235 227 218 227 232 230 229 227 225 223 224 226 228 231 232 227 227 229 226 222 222
357 358 359 357 354 351 349 348 349 350 351 351 352 353 350 351 355 357 355 352 0 7 8 6 4 360 356 353 346 342 339 331 317 307 306 303 299 299 302 302 298 291 284 279 275 270 267 267 267 264 262 259 254 251 251 251 253 252 253 257 256 255 254 249 241 225 218 240 238 226 232 236 230 227 227 225 224 224 224 225 228 232 231 227 228 227 222 221
356 357 358 357 354 351 350 349 349 351 351 352 353 353 352 351 353 358 355 353 5 6 5 1 359 354 350 347 341 340 341 333 319 301 294 294 293 295 300 300 293 287 284 279 276 273 269 274 282 281 269 262 256 250 249 248 250 248 247 251 253 255 257 255 252 240 228 237 243 241 245 244 233 227 227 225 223 223 223 224 225 229 233 229 227 227 224 222
355 356 356 356 355 352 351 350 350 352 352 354 355 354 351 348 351 356 352 348 11 9 6 358 354 350 345 341 336 338 340 333 325 309 296 292 291 291 290 288 286 287 290 288 279 272 267 271 279 278 264 255 250 246 245 245 247 249 247 247 251 255 257 258 260 255 244 240 241 248 260 257 243 232 227 224 224 224 223 224 224 224 229 230 226 227 228 225
355 356 355 356 355 353 352 352 351 352 354 356 356 355 350 347 348 350 350 342 15 8 5 356 354 351 344 338 330 330 335 336 329 317 304 293 286 284 282 280 281 287 294 293 283 274 270 269 269 269 266 260 253 247 245 244 247 252 253 253 256 260 263 264 266 266 260 249 241 241 258 267 248 238 232 225 223 225 224 223 224 223 224 228 226 224 227 227
355 355 354 355 355 353 353 353 351 352 355 357 358 355 349 346 345 346 350 1 44 4 1 356 355 350 343 337 327 323 330 342 331 319 308 294 286 281 278 279 282 288 291 291 286 278 277 275 269 265 262 259 255 252 249 246 248 255 257 258 260 261 261 258 253 244 243 250 245 232 233 260 255 239 235 229 225 224 224 224 223 223 222 225 226 223 222 224
355 355 354 356 355 353 353 352 352 352 354 358 358 355 347 343 342 343 350 115 2 354 355 356 355 350 344 338 330 325 329 336 333 329 320 304 296 288 283 282 283 287 287 285 279 275 279 281 273 262 250 246 249 251 252 246 244 251 252 250 248 246 246 243 237 233 239 254 258 234 229 258 263 242 233 226 226 224 223 224 223 222 222 222 224 224 222 223
355 355 354 355 355 354 353 353 353 352 353 356 358 355 346 342 340 341 352 118 343 344 350 354 353 351 348 341 335 331 330 333 332 329 322 310 302 294 290 288 287 287 282 273 266 270 278 273 264 262 255 252 249 246 247 243 242 248 252 249 248 249 246 245 242 239 246 259 261 241 231 248 260 247 237 223 225 225 222 222 223 221 221 222 223 224 223 223
356 355 354 355 355 353 353 353 353 353 352 355 357 354 345 341 340 342 352 150 335 339 346 350 352 354 356 355 354 350 341 337 327 318 317 311 302 295 293 292 290 286 279 271 266 270 276 272 268 267 262 261 261 258 252 247 247 252 259 254 248 250 249 252 249 242 247 251 250 241 227 231 255 249 241 231 226 225 222 221 223 223 222 222 223 223 224 224
357 356 356 355 354 353 352 353 354 354 353 354 355 350 345 340 341 353 52 322 333 336 341 348 355 357 359 4 6 2 355 346 332 323 318 310 302 294 293 294 292 285 280 274 270 271 273 270 268 265 262 261 263 265 260 255 257 259 261 257 250 251 250 254 250 238 241 242 246 242 224 225 251 249 242 238 229 223 223 222 223 224 224 223 223 224 224 224
358 357 357 356 354 353 351 352 354 355 353 354 354 349 345 336 343 23 78 326 332 336 342 348 355 358 3 7 4 4 5 359 347 339 332 321 310 299 297 299 297 290 282 275 273 276 273 265 264 264 265 263 261 264 263 261 261 259 260 260 261 255 240 243 239 225 227 241 246 246 230 225 239 239 243 243 235 227 227 225 223 224 226 224 224 225 225 225
359 358 358 357 355 353 352 352 354 354 353 353 353 351 345 332 353 26 341 331 334 340 345 347 351 355 2 7 1 356 359 1 356 350 342 334 323 312 306 304 298 291 283 275 276 280 277 273 271 268 266 261 257 257 258 261 259 254 250 240 240 241 217 222 220 211 227 239 245 248 234 232 244 250 251 247 243 235 230 225 222 223 225 226 225 226 227 226
358 359 359 357 355 353 353 353 353 353 353 353 353 352 347 334 356 351 342 341 338 340 343 341 345 352 353 359 358 351 351 355 357 351 343 339 333 323 315 309 295 278 272 276 282 287 290 293 286 270 266 256 247 244 242 248 249 245 235 216 212 216 194 214 220 216 230 240 249 250 245 254 255 259 259 249 243 240 233 226 223 222 223 224 225 227 228 228
357 358 359 357 355 354 353 353 353 353 353 354 353 352 349 342 331 333 341 344 336 338 341 337 337 341 345 355 360 354 351 352 354 349 343 342 337 329 321 315 304 281 273 276 280 279 285 296 299 283 281 260 245 241 238 241 243 244 237 221 217 218 207 213 220 216 229 245 254 242 229 251 251 255 265 254 246 246 242 234 226 223 223 223 224 227 229 230
356 357 358 357 355 355 355 353 353 354 355 354 351 350 353 356 334 332 340 343 337 338 340 337 333 333 338 347 354 356 351 348 349 345 342 342 338 332 330 323 313 300 285 269 266 265 260 269 276 283 294 290 273 254 238 235 237 241 232 215 218 222 218 221 231 230 249 269 261 226 225 253 258 258 261 256 253 252 249 242 234 226 223 222 223 226 229 231
356 356 357 356 356 357 355 353 354 356 357 356 350 348 357 358 340 334 338 340 337 336 338 339 338 336 338 342 348 355 349 343 348 346 341 342 341 340 346 338 325 317 301 269 263 271 263 266 274 279 289 292 284 260 225 214 218 223 213 210 221 225 221 226 250 256 267 282 263 243 253 261 266 266 254 245 249 251 250 247 241 231 225 222 222 224 227 230
356 356 357 356 356 357 355 355 358 358 359 359 354 351 354 349 337 331 330 333 333 334 337 339 340 339 340 339 343 351 347 341 348 345 336 339 343 346 345 335 327 321 308 277 269 269 266 277 284 285 286 273 248 247 236 217 212 206 206 220 229 230 226 226 248 267 252 261 258 244 254 258 256 264 260 245 240 246 250 250 247 239 230 225 223 222 225 229
358 357 357 356 356 356 356 357 360 1 1 359 356 355 351 341 329 322 321 325 327 330 334 336 337 336 337 336 337 345 346 342 345 344 336 335 338 340 336 327 318 314 298 267 263 262 265 283 294 292 292 278 246 240 240 230 222 215 221 241 227 215 211 209 217 248 233 241 252 241 248 252 245 249 267 261 244 245 251 252 251 247 237 230 226 224 226 228
360 358 358 357 357 358 358 359 0 0 0 360 358 352 346 341 328 321 320 321 322 325 329 333 333 331 333 334 335 341 345 343 343 343 336 326 328 338 334 315 303 307 296 272 260 259 261 275 290 285 287 300 261 238 234 236 229 219 231 244 220 208 205 197 202 217 224 232 241 244 248 247 247 250 257 263 257 251 252 252 252 252 247 238 231 229 230 231
1 359 359 359 0 359 359 360 359 358 359 0 0 353 345 342 330 317 315 317 318 320 323 327 328 328 331 336 338 339 341 343 342 339 331 325 331 341 335 304 303 309 309 296 269 258 255 251 262 273 276 279 265 249 241 238 229 217 221 223 215 218 219 202 203 215 226 242 239 242 249 245 248 250 251 257 260 254 252 252 252 251 249 245 238 233 232 233
1 2 2 2 3 2 360 359 359 1 3 1 2 359 351 347 338 323 313 311 311 313 317 322 326 328 331 335 337 336 337 341 342 336 329 331 335 338 336 329 322 316 315 307 282 264 254 248 258 269 272 269 259 252 247 236 224 219 222 218 212 214 216 212 214 218 225 240 246 248 265 259 245 239 246 251 244 238 239 245 251 250 246 245 244 240 235 234
1 4 5 4 5 5 2 0 2 7 8 3 1 0 353 348 345 339 326 312 308 311 316 321 326 329 331 332 334 336 334 335 338 335 328 333 339 343 342 341 335 326 321 312 296 281 264 254 259 268 274 277 271 257 245 234 221 221 227 222 218 215 214 218 219 213 218 235 250 258 270 259 237 228 244 252 242 234 230 234 242 241 239 239 240 241 239 238
1 5 6 5 6 5 3 5 8 10 10 5 0 357 353 348 346 346 341 326 317 314 320 327 329 330 331 331 333 336 334 330 333 334 331 334 341 350 352 344 335 327 319 311 301 288 267 253 254 271 286 292 285 251 232 227 226 230 229 224 223 219 217 224 233 232 231 238 248 255 259 254 243 239 249 250 247 246 233 231 234 228 226 225 224 228 232 236
0 5 8 8 8 6 4 7 10 10 11 10 4 358 355 352 350 350 347 340 334 331 333 335 334 330 331 334 334 336 334 329 329 333 334 334 339 353 359 340 323 316 312 308 303 290 268 258 254 270 300 315 299 238 225 221 225 231 229 223 224 224 223 230 235 238 245 246 244 244 248 246 238 239 262 262 257 254 242 241 246 242 239 230 224 229 230 234
360 4 7 9 9 7 7 8 7 6 7 8 7 5 1 1 358 352 348 345 342 342 343 341 335 331 334 336 334 335 337 332 328 332 336 337 340 351 354 322 302 310 313 309 302 291 275 270 266 255 267 294 282 271 242 222 223 227 227 223 222 223 224 228 227 226 236 244 243 243 252 253 248 266 300 300 285 268 254 253 255 252 253 243 233 235 236 238
0 3 5 7 8 8 8 8 5 4 3 2 6 6 4 7 6 356 352 349 342 344 348 344 336 334 337 337 335 339 342 336 330 333 338 340 341 346 343 308 304 321 321 316 313 300 278 280 287 276 266 277 284 280 271 240 229 224 223 222 220 219 222 226 227 228 235 246 253 253 259 265 266 278 293 299 299 277 259 256 252 244 248 255 248 241 238 238
1 1 2 5 6 5 5 6 4 3 2 360 1 3 2 4 6 2 360 352 341 345 350 345 340 339 340 338 335 339 342 337 333 336 341 341 341 343 341 313 319 335 337 336 345 322 275 285 305 298 290 300 299 280 251 242 242 227 222 223 221 220 224 227 231 238 241 244 258 259 257 260 266 276 278 282 303 287 256 251 249 247 258 275 277 253 239 238
0 359 359 2 3 1 0 2 2 1 1 359 358 359 360 1 3 4 3 357 340 339 344 345 345 345 343 339 334 336 340 338 336 339 343 343 343 348 349 324 321 338 349 344 349 338 288 288 310 308 304 312 304 277 246 244 245 231 222 223 222 222 227 230 234 244 246 240 246 255 253 252 265 282 280 282 301 293 259 250 247 256 278 287 286 260 242 240
359 359 358 359 0 359 358 359 359 358 359 359 358 357 356 356 1 2 1 358 343 334 339 344 348 350 348 341 335 336 339 336 332 336 342 344 345 346 343 335 324 332 342 334 334 333 300 291 309 305 303 312 310 281 249 239 239 232 223 222 222 222 227 231 238 249 253 246 246 253 256 257 268 286 286 286 296 290 274 260 249 257 283 283 277 264 244 241
356 359 359 356 356 357 356 356 357 355 354 357 358 358 353 350 355 0 358 355 344 336 339 344 349 356 355 345 339 338 339 334 328 332 338 339 341 343 340 336 325 321 322 311 318 325 302 294 311 308 304 318 328 303 254 235 235 235 226 222 223 224 226 230 238 248 250 247 247 252 257 261 270 284 284 287 292 287 286 274 252 252 276 276 265 266 250 243
352 356 358 355 352 353 354 354 354 353 351 353 355 357 356 348 349 355 358 356 346 337 339 343 346 356 359 350 345 343 341 336 330 329 330 328 336 352 354 342 321 301 304 303 308 315 303 299 312 314 308 322 340 337 293 245 234 237 232 226 225 226 230 233 239 245 246 246 249 252 254 259 270 279 278 282 285 280 280 274 256 254 269 267 257 293 289 250
350 352 356 356 351 350 350 350 353 353 350 350 352 355 357 351 346 348 352 358 353 335 335 340 341 348 354 350 349 349 344 340 334 328 322 325 341 9 14 5 359 326 326 330 321 313 306 302 312 318 310 316 337 352 7 172 215 236 234 229 228 231 235 238 242 246 247 247 248 249 252 256 264 271 273 276 276 268 262 257 253 262 264 246 236 308 323 254
Height
3124 3123 3122 3122 3121 3120 3119 3118 3117 3116 3116 3115 3114 3113 3112 3111 3110 3109 3108 3108 3107 3107 3106 3106 3105 3104 3104 3103 3103 3103 3103 3102 3101 3101 3101 3102 3102 3103 3103 3103 3103 3104 3105 3106 3108 3109 3111 3113 3115 3118 3121 3123 3124 3127 3129 3130 3132 3133 3133 3132 3129 3129 3130 3132 3137 3140 3144 3148 3152 3154 3156 3157 3158 3159 3161 3162 3164 3165 3167 3168 3169 3170 3171 3172 3172 3173 3173 3175
3123 3122 3121 3120 3120 3119 3118 3117 3116 3115 3114 3113 3113 3112 3110 3109 3108 3107 3106 3106 3105 3105 3104 3103 3103 3101 3100 3100 3100 3100 3100 3100 3099 3099 3099 3099 3100 3100 3100 3101 3101 3101 3102 3103 3104 3105 3107 3108 3111 3113 3116 3118 3119 3122 3125 3126 3127 3127 3128 3126 3122 3123 3126 3130 3135 3138 3142 3146 3150 3152 3153 3155 3156 3157 3158 3160 3162 3163 3164 3166 3167 3169 3169 3171 3172 3172 3173 3174
3122 3121 3120 3119 3118 3118 3116 3115 3114 3114 3113 3112 3111 3110 3109 3107 3106 3105 3104 3104 3103 3102 3101 3101 3100 3098 3097 3097 3097 3097 3097 3097 3096 3096 3097 3097 3097 3097 3097 3098 3098 3098 3099 3099 3100 3102 3103 3104 3106 3108 3111 3113 3115 3118 3120 3121 3122 3122 3123 3120 3116 3121 3125 3128 3133 3135 3138 3143 3147 3149 3151 3152 3153 3155 3156 3157 3160 3160 3162 3163 3165 3167 3168 3169 3171 3172 3172 3173
3122 3120 3119 3118 3117 3116 3115 3114 3113 3112 3111 3110 3109 3108 3107 3106 3104 3103 3102 3102 3101 3100 3099 3098 3097 3096 3095 3095 3095 3094 3094 3094 3093 3093 3094 3094 3094 3094 3094 3094 3095 3095 3096 3096 3097 3098 3099 3100 3102 3103 3106 3107 3110 3112 3114 3116 3117 3117 3117 3114 3114 3119 3122 3124 3129 3133 3136 3139 3143 3146 3147 3148 3150 3152 3153 3154 3156 3157 3159 3162 3164 3166 3167 3168 3170 3171 3172 3172
3121 3120 3119 3118 3116 3115 3114 3113 3112 3111 3110 3109 3108 3106 3105 3104 3102 3101 3100 3099 3098 3097 3097 3096 3095 3094 3093 3093 3092 3092 3091 3091 3090 3090 3090 3091 3091 3091 3091 3092 3092 3093 3093 3094 3095 3095 3096 3097 3098 3099 3101 3102 3105 3106 3108 3111 3113 3112 3112 3112 3115 3117 3119 3121 3126 3130 3133 3136 3138 3141 3143 3144 3147 3149 3149 3150 3151 3152 3157 3160 3162 3164 3166 3167 3168 3169 3170 3171
3120 3119 3118 3117 3116 3115 3113 3112 3111 3110 3109 3107 3106 3105 3103 3102 3101 3099 3098 3096 3096 3095 3095 3094 3093 3092 3091 3091 3090 3090 3089 3088 3088 3088 3088 3088 3088 3089 3089 3089 3090 3090 3091 3091 3092 3092 3093 3093 3094 3095 3096 3098 3100 3101 3103 3107 3109 3108 3108 3111 3112 3113 3115 3118 3123 3126 3130 3132 3133 3136 3138 3141 3144 3144 3145 3146 3146 3150 3155 3157 3160 3162 3163 3165 3166 3167 3168 3169
3120 3118 3117 3116 3115 3114 3113 3111 3110 3109 3108 3106 3105 3104 3102 3101 3100 3098 3097 3095 3094 3093 3092 3091 3091 3090 3089 3088 3088 3087 3087 3086 3085 3086 3085 3085 3085 3086 3086 3087 3087 3088 3088 3089 3089 3089 3090 3091 3091 3092 3093 3094 3095 3097 3099 3102 3104 3103 3104 3106 3107 3108 3111 3115 3118 3122 3125 3127 3129 3133 3134 3136 3138 3139 3141 3142 3144 3149 3152 3153 3156 3158 3159 3161 3163 3165 3166 3168
3119 3118 3116 3115 3114 3113 3112 3111 3110 3109 3107 3106 3104 3103 3101 3100 3099 3097 3096 3095 3093 3092 3091 3089 3088 3087 3086 3086 3085 3085 3085 3084 3083 3083 3083 3083 3083 3083 3084 3084 3085 3085 3086 3086 3087 3087 3087 3088 3089 3089 3090 3091 3092 3093 3095 3097 3099 3099 3099 3101 3102 3104 3108 3111 3114 3117 3121 3123 3127 3130 3130 3130 3132 3135 3138 3139 3141 3145 3148 3150 3152 3154 3154 3156 3161 3163 3165 3166
3119 3117 3116 3115 3114 3113 3112 3110 3109 3108 3106 3105 3103 3102 3100 3099 3098 3096 3095 3094 3092 3091 3090 3088 3087 3086 3085 3084 3083 3082 3083 3082 3081 3081 3081 3081 3081 3081 3081 3081 3082 3083 3083 3084 3084 3085 3085 3085 3086 3087 3088 3089 3090 3091 3092 3094 3095 3095 3095 3096 3098 3101 3103 3107 3109 3113 3116 3119 3123 3125 3125 3126 3129 3132 3133 3133 3138 3142 3145 3147 3148 3150 3151 3152 3156 3160 3162 3164
3118 3117 3116 3114 3113 3112 3111 3110 3108 3107 3105 3103 3102 3101 3099 3098 3097 3095 3094 3093 3092 3090 3089 3088 3086 3085 3084 3082 3081 3080 3080 3080 3079 3079 3079 3079 3079 3079 3079 3079 3080 3080 3081 3081 3082 3082 3083 3083 3083 3085 3086 3086 3087 3088 3089 3090 3091 3091 3091 3092 3094 3097 3099 3102 3105 3109 3112 3115 3119 3120 3121 3123 3127 3128 3125 3127 3133 3138 3141 3143 3144 3146 3148 3149 3152 3155 3158 3161
3118 3116 3115 3113 3112 3111 3110 3109 3107 3106 3104 3102 3101 3100 3098 3097 3096 3094 3093 3092 3091 3090 3088 3087 3085 3084 3082 3081 3080 3079 3078 3078 3077 3077 3078 3078 3078 3078 3078 3078 3078 3078 3078 3078 3079 3079 3080 3080 3081 3082 3083 3083 3084 3086 3086 3087 3088 3089 3088 3089 3091 3093 3095 3098 3101 3105 3108 3111 3114 3117 3119 3121 3124 3120 3117 3122 3130 3134 3137 3139 3140 3143 3144 3147 3149 3151 3154 3157
3118 3116 3114 3113 3111 3110 3109 3108 3106 3105 3103 3101 3100 3099 3097 3096 3094 3093 3092 3091 3090 3088 3087 3086 3084 3083 3081 3080 3078 3077 3077 3076 3075 3075 3075 3076 3076 3076 3076 3076 3076 3076 3076 3076 3076 3076 3077 3077 3078 3079 3080 3081 3082 3083 3084 3084 3085 3085 3086 3087 3088 3089 3090 3093 3097 3101 3104 3106 3111 3116 3116 3116 3115 3110 3111 3121 3127 3131 3134 3135 3137 3139 3142 3144 3146 3148 3150 3153
3117 3115 3113 3112 3110 3109 3108 3107 3105 3104 3102 3101 3099 3097 3096 3095 3093 3092 3091 3090 3088 3087 3086 3085 3083 3082 3080 3079 3077 3077 3076 3075 3074 3073 3073 3073 3073 3073 3073 3073 3074 3074 3075 3075 3074 3073 3074 3075 3076 3077 3077 3078 3080 3081 3082 3081 3082 3082 3084 3084 3085 3086 3086 3088 3093 3098 3101 3103 3108 3113 3111 3107 3104 3104 3111 3119 3123 3127 3130 3131 3133 3135 3138 3140 3143 3145 3147 3149
3117 3115 3113 3111 3110 3108 3107 3106 3104 3103 3101 3100 3098 3096 3095 3093 3092 3091 3090 3088 3087 3086 3085 3083 3082 3080 3079 3078 3077 3076 3075 3074 3073 3072 3072 3071 3071 3071 3071 3071 3072 3072 3073 3073 3073 3072 3072 3072 3073 3074 3075 3076 3077 3079 3079 3079 3080 3080 3082 3081 3082 3083 3083 3084 3090 3094 3097 3099 3105 3108 3104 3098 3098 3103 3111 3116 3120 3123 3126 3128 3130 3132 3134 3136 3139 3141 3143 3146
3116 3114 3112 3110 3109 3108 3106 3105 3103 3102 3101 3099 3097 3095 3094 3092 3091 3090 3089 3087 3086 3085 3083 3082 3081 3079 3078 3078 3076 3075 3074 3073 3072 3071 3071 3070 3069 3069 3069 3070 3070 3070 3070 3071 3071 3071 3070 3070 3071 3072 3073 3074 3075 3076 3077 3077 3078 3078 3079 3079 3079 3081 3081 3082 3086 3090 3093 3097 3102 3103 3097 3093 3096 3101 3108 3113 3117 3119 3121 3124 3126 3128 3130 3133 3135 3137 3140 3142
3116 3114 3112 3110 3108 3107 3106 3104 3103 3101 3100 3098 3096 3094 3093 3092 3090 3089 3087 3086 3085 3084 3082 3081 3079 3078 3078 3077 3075 3074 3073 3072 3070 3069 3069 3068 3068 3068 3068 3068 3068 3068 3068 3069 3069 3069 3069 3069 3069 3070 3071 3072 3073 3074 3075 3075 3076 3076 3077 3077 3076 3078 3079 3080 3083 3086 3090 3094 3097 3097 3091 3089 3094 3098 3104 3110 3112 3115 3117 3120 3123 3124 3127 3129 3132 3134 3136 3138
3115 3114 3111 3110 3108 3106 3105 3103 3102 3100 3099 3097 3095 3093 3092 3090 3089 3088 3086 3085 3084 3083 3081 3080 3078 3077 3076 3076 3075 3074 3072 3071 3069 3068 3068 3067 3067 3067 3067 3067 3067 3067 3067 3067 3067 3067 3068 3068 3068 3069 3069 3070 3071 3072 3073 3073 3073 3074 3074 3075 3075 3077 3078 3079 3081 3083 3087 3089 3091 3092 3087 3085 3090 3094 3100 3106 3108 3111 3113 3115 3119 3121 3123 3126 3128 3130 3132 3134
3115 3113 3111 3109 3107 3105 3104 3102 3101 3100 3098 3096 3094 3092 3091 3090 3088 3087 3085 3085 3083 3082 3080 3079 3077 3076 3076 3075 3074 3073 3071 3070 3069 3068 3067 3067 3066 3066 3066 3065 3065 3065 3066 3065 3066 3065 3066 3066 3066 3067 3067 3068 3069 3071 3072 3071 3071 3072 3073 3074 3074 3075 3076 3078 3079 3080 3082 3084 3086 3087 3082 3081 3087 3092 3097 3101 3104 3107 3108 3111 3115 3118 3120 3123 3125 3127 3128 3130
3115 3113 3110 3108 3106 3105 3103 3101 3100 3099 3097 3095 3092 3091 3090 3088 3087 3086 3084 3083 3082 3080 3079 3078 3076 3076 3076 3074 3073 3072 3070 3069 3068 3067 3067 3066 3066 3065 3065 3064 3064 3064 3064 3064 3064 3064 3064 3064 3064 3065 3065 3066 3067 3069 3070 3069 3070 3071 3072 3072 3072 3073 3074 3075 3077 3078 3079 3079 3080 3081 3079 3080 3085 3088 3092 3096 3100 3102 3104 3107 3110 3113 3116 3118 3121 3123 3125 3127
3114 3112 3110 3108 3106 3104 3102 3100 3099 3098 3097 3095 3093 3090 3089 3088 3086 3085 3084 3082 3081 3079 3078 3077 3076 3075 3074 3073 3072 3071 3070 3069 3067 3066 3066 3066 3065 3065 3064 3064 3064 3063 3063 3063 3063 3063 3063 3063 3062 3063 3063 3064 3066 3067 3068 3068 3068 3069 3070 3070 3070 3071 3071 3072 3074 3076 3077 3076 3075 3076 3076 3076 3080 3084 3088 3092 3095 3097 3099 3102 3105 3108 3112 3114 3117 3120 3122 3124
3114 3112 3109 3107 3105 3103 3101 3099 3098 3096 3095 3094 3092 3090 3089 3088 3086 3085 3083 3082 3080 3079 3077 3076 3075 3074 3073 3072 3071 3070 3070 3068 3067 3066 3065 3065 3064 3064 3064 3063 3063 3063 3063 3063 3062 3062 3062 3061 3061 3061 3062 3063 3064 3065 3066 3066 3067 3067 3068 3068 3069 3069 3069 3071 3072 3074 3074 3073 3071 3073 3072 3072 3075 3079 3082 3086 3089 3091 3094 3097 3099 3103 3107 3110 3113 3116 3119 3121
3113 3111 3109 3107 3104 3102 3100 3098 3097 3095 3093 3092 3090 3089 3088 3087 3085 3084 3082 3081 3080 3078 3077 3076 3075 3074 3073 3072 3070 3069 3068 3067 3066 3065 3064 3064 3063 3063 3063 3062 3062 3062 3062 3062 3062 3062 3061 3060 3060 3061 3061 3062 3063 3063 3064 3064 3065 3066 3066 3066 3067 3067 3067 3069 3070 3071 3072 3070 3069 3070 3068 3067 3071 3074 3076 3080 3083 3085 3089 3093 3095 3099 3103 3106 3108 3112 3115 3118
3113 3111 3109 3106 3104 3102 3100 3098 3096 3094 3092 3091 3089 3088 3087 3086 3084 3083 3082 3081 3080 3078 3077 3076 3075 3074 3072 3071 3069 3068 3067 3066 3065 3064 3063 3062 3062 3062 3062 3061 3061 3060 3060 3061 3061 3061 3061 3060 3060 3060 3060 3061 3061 3062 3062 3063 3063 3063 3064 3065 3064 3065 3066 3067 3068 3069 3070 3068 3067 3067 3065 3064 3067 3069 3070 3074 3077 3080 3084 3088 3091 3094 3097 3101 3104 3108 3111 3114
3113 3110 3108 3106 3104 3101 3099 3097 3096 3094 3092 3090 3089 3087 3086 3085 3083 3082 3081 3080 3080 3078 3077 3076 3075 3073 3072 3070 3068 3067 3066 3065 3064 3062 3061 3061 3061 3061 3060 3060 3059 3059 3059 3059 3059 3059 3059 3059 3059 3059 3059 3059 3060 3060 3060 3060 3061 3061 3061 3062 3062 3062 3064 3065 3065 3066 3067 3066 3065 3067 3064 3061 3063 3065 3066 3070 3073 3075 3080 3083 3085 3089 3092 3096 3100 3103 3106 3110
3112 3110 3107 3105 3103 3101 3099 3097 3095 3094 3092 3090 3088 3086 3085 3084 3082 3081 3080 3079 3079 3078 3077 3076 3074 3073 3071 3069 3067 3066 3065 3064 3063 3062 3061 3060 3060 3060 3059 3059 3058 3058 3058 3058 3057 3056 3056 3057 3057 3057 3057 3057 3058 3057 3058 3058 3059 3059 3059 3059 3060 3061 3062 3063 3064 3064 3065 3064 3063 3066 3064 3058 3059 3062 3062 3067 3070 3071 3075 3078 3080 3084 3087 3090 3094 3097 3101 3105
3112 3110 3107 3105 3103 3100 3099 3097 3095 3093 3091 3089 3088 3086 3084 3083 3082 3080 3079 3078 3078 3078 3077 3075 3074 3072 3069 3067 3065 3064 3064 3063 3062 3060 3060 3059 3059 3058 3058 3058 3057 3057 3057 3056 3055 3054 3054 3055 3054 3054 3055 3055 3055 3055 3056 3057 3058 3057 3057 3058 3058 3059 3061 3061 3062 3063 3063 3061 3060 3063 3062 3056 3056 3058 3059 3063 3066 3067 3070 3073 3075 3079 3082 3085 3088 3092 3096 3100
3112 3109 3107 3105 3102 3100 3098 3096 3094 3093 3091 3089 3087 3086 3084 3082 3081 3080 3078 3077 3077 3077 3076 3075 3073 3071 3068 3065 3063 3063 3063 3063 3061 3060 3059 3058 3058 3057 3057 3056 3056 3055 3055 3055 3053 3051 3051 3052 3053 3052 3053 3053 3053 3054 3054 3055 3056 3055 3055 3056 3057 3057 3059 3059 3061 3061 3060 3059 3058 3059 3060 3057 3053 3053 3056 3059 3060 3062 3065 3067 3069 3073 3076 3079 3083 3087 3092 3095
3111 3109 3107 3104 3102 3100 3098 3096 3094 3092 3090 3089 3087 3085 3084 3082 3081 3079 3078 3078 3078 3077 3076 3075 3073 3071 3069 3065 3062 3062 3062 3061 3060 3059 3058 3058 3057 3056 3055 3054 3054 3054 3054 3053 3051 3049 3050 3051 3051 3051 3051 3051 3051 3052 3053 3053 3053 3052 3053 3054 3055 3056 3057 3057 3059 3059 3058 3058 3055 3055 3059 3056 3049 3048 3052 3055 3056 3056 3059 3061 3064 3067 3071 3075 3079 3083 3087 3092
3111 3108 3106 3104 3102 3099 3097 3096 3094 3092 3090 3088 3086 3085 3083 3082 3080 3079 3078 3078 3078 3077 3076 3075 3073 3071 3069 3066 3063 3062 3061 3060 3060 3059 3057 3057 3056 3055 3053 3052 3052 3051 3051 3051 3048 3047 3048 3048 3049 3049 3049 3049 3049 3050 3051 3051 3051 3051 3051 3052 3053 3054 3055 3056 3057 3057 3057 3056 3051 3051 3055 3052 3045 3044 3049 3051 3051 3051 3053 3056 3059 3063 3067 3071 3075 3079 3083 3088
3110 3108 3106 3103 3101 3099 3096 3095 3093 3091 3089 3087 3086 3085 3083 3081 3080 3079 3079 3079 3078 3077 3076 3074 3073 3070 3068 3066 3064 3062 3061 3059 3058 3057 3057 3056 3055 3054 3052 3050 3049 3048 3048 3047 3045 3045 3045 3046 3045 3045 3045 3046 3047 3048 3048 3049 3049 3050 3050 3051 3052 3052 3053 3054 3054 3055 3056 3052 3047 3047 3051 3051 3044 3040 3044 3046 3046 3047 3050 3053 3057 3060 3064 3068 3071 3075 3079 3084
3110 3108 3106 3103 3101 3098 3096 3094 3092 3091 3089 3087 3086 3084 3083 3081 3080 3080 3080 3079 3078 3076 3075 3073 3072 3070 3067 3065 3062 3061 3060 3058 3057 3056 3055 3054 3053 3052 3051 3049 3048 3046 3044 3043 3042 3041 3042 3042 3041 3040 3041 3043 3045 3045 3045 3046 3047 3049 3049 3050 3051 3050 3051 3052 3053 3054 3053 3047 3043 3044 3047 3049 3043 3038 3040 3042 3043 3046 3048 3050 3054 3058 3061 3065 3068 3071 3075 3079
3110 3108 3106 3103 3101 3098 3095 3093 3091 3090 3088 3087 3085 3084 3082 3081 3080 3081 3081 3079 3077 3076 3074 3072 3071 3069 3067 3065 3062 3060 3059 3057 3056 3054 3053 3051 3050 3049 3049 3048 3047 3045 3042 3040 3040 3039 3038 3038 3038 3037 3038 3040 3041 3041 3042 3043 3044 3046 3047 3049 3049 3048 3048 3050 3048 3049 3048 3043 3041 3043 3045 3045 3039 3036 3038 3039 3039 3043 3046 3047 3051 3054 3057 3061 3064 3067 3070 3075
3109 3107 3105 3103 3101 3098 3095 3093 3091 3089 3088 3086 3084 3083 3082 3081 3081 3081 3080 3079 3077 3076 3074 3072 3070 3069 3067 3065 3062 3060 3058 3056 3055 3053 3051 3049 3047 3046 3046 3046 3045 3044 3041 3038 3039 3037 3035 3033 3034 3034 3034 3035 3036 3037 3039 3040 3041 3043 3044 3046 3046 3044 3047 3048 3045 3044 3044 3040 3039 3042 3044 3041 3036 3033 3034 3035 3037 3040 3042 3045 3047 3050 3052 3056 3059 3062 3065 3068
3109 3107 3105 3103 3100 3098 3095 3093 3091 3089 3087 3085 3084 3083 3082 3082 3082 3081 3080 3079 3078 3076 3074 3072 3070 3069 3067 3064 3062 3059 3057 3055 3053 3051 3049 3048 3046 3044 3043 3043 3042 3041 3039 3038 3038 3037 3034 3032 3031 3032 3032 3032 3032 3033 3036 3037 3038 3039 3040 3043 3043 3041 3043 3044 3041 3040 3039 3038 3037 3040 3042 3038 3033 3031 3031 3033 3035 3037 3039 3042 3044 3047 3049 3052 3055 3057 3060 3063
3108 3106 3104 3102 3100 3098 3095 3093 3091 3089 3087 3085 3084 3083 3083 3082 3082 3080 3079 3078 3076 3075 3073 3071 3069 3067 3065 3064 3062 3060 3057 3054 3052 3049 3047 3046 3045 3042 3041 3041 3040 3039 3039 3038 3037 3035 3034 3031 3030 3030 3030 3030 3030 3031 3032 3034 3035 3036 3037 3040 3039 3038 3038 3038 3036 3036 3037 3037 3036 3038 3037 3033 3031 3029 3030 3031 3033 3034 3036 3038 3041 3044 3046 3049 3052 3054 3057 3059
3108 3106 3103 3101 3099 3097 3095 3093 3091 3089 3087 3085 3084 3083 3082 3082 3081 3080 3078 3077 3075 3073 3072 3070 3068 3066 3064 3062 3061 3059 3057 3054 3051 3048 3045 3044 3043 3041 3040 3040 3039 3038 3037 3037 3036 3034 3032 3028 3028 3029 3028 3028 3029 3029 3029 3031 3032 3033 3034 3035 3033 3034 3037 3037 3036 3036 3037 3037 3036 3035 3033 3031 3030 3027 3027 3029 3030 3031 3033 3034 3037 3040 3043 3046 3048 3050 3054 3056
3108 3106 3103 3101 3099 3097 3095 3093 3091 3089 3087 3085 3084 3083 3082 3081 3081 3079 3078 3077 3075 3073 3071 3069 3067 3065 3063 3061 3059 3059 3056 3053 3050 3048 3045 3043 3041 3040 3040 3039 3038 3037 3036 3035 3034 3033 3031 3027 3026 3027 3027 3027 3027 3027 3027 3029 3029 3030 3032 3032 3032 3035 3037 3038 3038 3037 3037 3036 3033 3032 3031 3030 3028 3025 3023 3026 3028 3029 3030 3032 3034 3036 3039 3042 3044 3047 3051 3053
3108 3106 3103 3101 3098 3096 3094 3092 3091 3089 3087 3085 3084 3083 3082 3081 3080 3079 3078 3077 3075 3073 3071 3069 3067 3065 3064 3061 3059 3058 3056 3053 3050 3048 3045 3042 3041 3040 3039 3038 3037 3036 3034 3034 3032 3031 3030 3027 3025 3025 3026 3025 3025 3026 3026 3027 3027 3028 3030 3030 3031 3033 3034 3035 3037 3036 3036 3034 3031 3029 3027 3026 3025 3023 3022 3025 3026 3027 3028 3030 3031 3033 3035 3038 3041 3045 3047 3049
3108 3106 3103 3101 3098 3096 3094 3092 3090 3088 3087 3085 3084 3083 3082 3081 3080 3078 3077 3075 3074 3072 3071 3069 3068 3065 3064 3062 3059 3057 3055 3052 3050 3048 3046 3043 3040 3039 3037 3037 3036 3035 3033 3032 3030 3029 3030 3029 3025 3023 3024 3024 3024 3024 3025 3025 3026 3027 3028 3029 3029 3030 3030 3031 3032 3032 3032 3031 3028 3027 3024 3021 3021 3022 3022 3023 3024 3026 3027 3028 3029 3030 3032 3035 3038 3041 3043 3045
3108 3106 3104 3101 3098 3096 3094 3092 3090 3088 3087 3085 3084 3083 3081 3081 3079 3078 3076 3074 3073 3071 3070 3069 3067 3065 3063 3061 3059 3056 3054 3052 3050 3048 3046 3043 3040 3037 3036 3036 3035 3033 3032 3030 3029 3028 3029 3029 3025 3022 3023 3023 3023 3023 3023 3024 3025 3026 3026 3027 3027 3028 3028 3029 3029 3029 3029 3027 3026 3025 3021 3018 3019 3020 3021 3022 3022 3023 3024 3025 3027 3028 3031 3033 3035 3037 3040 3041
3108 3106 3104 3101 3099 3097 3095 3092 3090 3088 3086 3085 3083 3082 3081 3079 3078 3077 3075 3073 3072 3070 3069 3068 3067 3065 3062 3060 3058 3056 3053 3051 3049 3047 3044 3041 3039 3037 3036 3035 3033 3031 3029 3028 3027 3027 3027 3026 3023 3020 3020 3020 3020 3021 3021 3022 3022 3023 3024 3025 3025 3027 3028 3028 3027 3026 3027 3026 3024 3023 3020 3017 3017 3018 3019 3020 3020 3020 3021 3022 3024 3025 3028 3029 3031 3033 3035 3036
3108 3106 3104 3101 3099 3097 3095 3092 3090 3087 3086 3084 3082 3081 3080 3078 3077 3075 3074 3072 3071 3069 3069 3068 3066 3064 3062 3060 3058 3056 3053 3049 3047 3046 3042 3039 3038 3037 3035 3033 3031 3030 3028 3026 3025 3025 3025 3024 3021 3019 3017 3016 3016 3018 3019 3019 3020 3021 3022 3022 3023 3025 3025 3025 3023 3022 3024 3024 3023 3023 3020 3016 3015 3016 3017 3017 3018 3018 3019 3020 3021 3022 3024 3025 3027 3028 3030 3031
3107 3106 3104 3101 3099 3097 3095 3092 3090 3088 3086 3084 3082 3080 3079 3077 3075 3074 3072 3071 3070 3069 3068 3067 3065 3063 3062 3060 3057 3055 3052 3047 3044 3043 3040 3037 3036 3036 3033 3031 3030 3028 3027 3025 3024 3023 3023 3022 3020 3017 3014 3013 3013 3014 3015 3016 3018 3019 3019 3019 3020 3021 3022 3022 3021 3021 3023 3022 3022 3023 3019 3014 3013 3014 3014 3015 3015 3016 3017 3017 3018 3019 3020 3021 3022 3024 3025 3026
3107 3105 3103 3101 3099 3097 3094 3092 3090 3088 3086 3085 3083 3081 3078 3076 3074 3072 3070 3069 3068 3068 3067 3066 3064 3063 3061 3059 3056 3054 3052 3047 3042 3040 3038 3035 3034 3033 3032 3030 3028 3027 3026 3024 3022 3022 3021 3020 3018 3017 3015 3012 3011 3011 3012 3013 3015 3015 3016 3017 3018 3019 3020 3021 3021 3021 3020 3019 3021 3021 3014 3009 3010 3011 3012 3013 3013 3013 3015 3015 3015 3016 3017 3018 3018 3019 3021 3022
3106 3104 3102 3100 3098 3096 3094 3091 3089 3087 3086 3084 3083 3081 3079 3076 3074 3071 3069 3068 3067 3067 3066 3064 3063 3062 3060 3058 3055 3053 3053 3049 3043 3039 3037 3035 3032 3031 3030 3028 3026 3025 3024 3023 3021 3021 3020 3018 3017 3017 3015 3014 3012 3011 3011 3011 3012 3013 3013 3015 3016 3017 3018 3018 3019 3019 3017 3016 3019 3017 3011 3008 3009 3010 3011 3012 3011 3011 3012 3012 3013 3014 3014 3015 3016 3016 3017 3018
3105 3103 3101 3099 3097 3095 3093 3090 3088 3086 3084 3082 3081 3079 3077 3076 3074 3071 3069 3067 3066 3066 3065 3064 3063 3061 3060 3057 3054 3052 3051 3048 3044 3040 3036 3033 3031 3029 3028 3026 3025 3024 3023 3021 3020 3020 3018 3017 3015 3015 3014 3013 3012 3011 3011 3011 3010 3010 3011 3012 3014 3015 3015 3016 3017 3016 3015 3017 3017 3015 3012 3009 3009 3010 3011 3010 3010 3009 3009 3010 3011 3012 3012 3012 3012 3012 3013 3014
3105 3103 3101 3099 3097 3095 3093 3090 3088 3086 3084 3081 3079 3078 3076 3074 3073 3071 3069 3067 3066 3065 3064 3063 3062 3060 3058 3056 3053 3050 3048 3046 3043 3039 3036 3033 3031 3029 3026 3025 3024 3024 3023 3021 3020 3019 3017 3015 3014 3013 3012 3012 3010 3010 3010 3010 3009 3009 3009 3010 3011 3012 3013 3014 3014 3013 3015 3018 3015 3012 3012 3009 3007 3010 3010 3008 3008 3007 3007 3008 3008 3009 3010 3009 3009 3009 3009 3010
3105 3103 3101 3099 3097 3095 3093 3091 3089 3086 3084 3082 3079 3077 3075 3074 3072 3071 3069 3067 3065 3065 3064 3063 3062 3060 3057 3055 3052 3049 3046 3042 3039 3037 3035 3033 3030 3028 3026 3025 3024 3023 3022 3021 3019 3018 3017 3014 3012 3011 3010 3010 3009 3008 3008 3008 3007 3007 3007 3008 3009 3010 3011 3012 3012 3012 3015 3015 3011 3009 3009 3005 3004 3007 3007 3005 3006 3005 3005 3006 3006 3006 3007 3006 3005 3005 3005 3007
3106 3103 3101 3098 3097 3095 3093 3091 3089 3086 3084 3082 3079 3076 3074 3073 3072 3070 3069 3067 3066 3064 3063 3062 3061 3059 3057 3055 3052 3048 3045 3041 3036 3034 3034 3032 3029 3028 3026 3025 3024 3022 3021 3020 3019 3018 3016 3013 3011 3010 3008 3007 3007 3005 3005 3005 3005 3005 3005 3006 3007 3008 3009 3009 3009 3010 3011 3011 3007 3006 3005 3002 3002 3003 3003 3003 3004 3003 3003 3004 3004 3004 3004 3003 3002 3002 3002 3003
3106 3104 3101 3099 3097 3095 3093 3091 3088 3086 3084 3082 3080 3077 3075 3073 3071 3070 3069 3067 3066 3064 3062 3061 3059 3058 3057 3055 3052 3048 3046 3042 3037 3034 3033 3032 3029 3028 3026 3024 3023 3022 3021 3020 3019 3018 3016 3013 3010 3009 3006 3004 3003 3003 3002 3002 3002 3003 3003 3004 3005 3006 3007 3007 3007 3007 3007 3006 3004 3004 3002 2999 2998 3000 3000 3001 3001 3001 3001 3001 3001 3001 3001 2999 3000 2999 2998 2999
3106 3104 3102 3099 3096 3094 3092 3090 3088 3086 3083 3081 3080 3078 3075 3073 3071 3070 3069 3067 3065 3063 3061 3060 3058 3057 3055 3053 3051 3048 3044 3041 3038 3034 3033 3032 3029 3028 3026 3024 3024 3023 3022 3021 3020 3018 3017 3013 3010 3009 3006 3002 3001 3001 2999 3000 3001 3001 3001 3002 3003 3003 3004 3004 3003 3003 3003 3002 3000 3001 2999 2996 2996 2997 2997 2998 2999 2999 2999 2999 2999 2999 2998 2997 2997 2996 2995 2995
3106 3104 3102 3100 3096 3094 3092 3090 3088 3085 3082 3080 3079 3077 3075 3073 3070 3068 3067 3066 3064 3061 3060 3058 3056 3054 3053 3051 3049 3046 3043 3040 3037 3034 3033 3031 3030 3028 3027 3025 3024 3023 3022 3021 3019 3018 3017 3014 3011 3010 3007 3003 3002 3001 2998 2999 3000 2999 2999 3000 3000 3000 3000 3000 3000 3000 3000 2999 2998 2997 2995 2994 2995 2995 2995 2995 2995 2996 2996 2997 2997 2997 2996 2994 2994 2993 2992 2991